[[{"header":{"parameterUnit":"m.s-1","parameterCategory":1,"la1":30.2991,"la2":30.254,"lo1":-89.0895,"lo2":-89.0444,"dy":0.0017,"dx":0.0017,"nx":28,"ny":28,"refTime":"2023-09-15T21:00:00:Z","depth":0,"parameterNumber":2,"parameterNumberName":"U-component_of_WINDS"},"data":[0,0,0,0,0,0,0,0,0,0,0,0,0,0,0,0,0,0,0,0,0,0,0,0,0,0,0,0,0,0,0,0,0,0,0,0,0,0,0,0,0,0,0,0,0,0,0,0,0,0,0,0,0,0,0,0,0,0,2.0279,2.0279,0,2.0224,2.0224,2.0223,2.0175,2.0174,2.0174,2.0173,2.0112,2.0111,2.011,0,0,0,0,0,0,0,0,0,0,0,0,0,2.0338,2.0338,2.0279,2.0279,2.0278,2.0225,2.0224,2.0223,2.0175,2.0174,2.0173,2.0173,2.0113,2.0111,2.011,0,0,0,0,0,0,0,0,0,0,0,0,0,2.0301,2.0337,2.0279,2.0247,2.0244,2.0225,2.0224,2.0223,2.0175,2.0174,2.0173,2.0172,2.0113,2.0112,2.011,2.0116,0,0,2.0105,2.0104,0,0,0,0,0,0,0,0,2.0303,2.0299,2.0253,2.025,2.0246,2.0206,2.0222,2.0187,2.0175,2.0201,2.0173,2.0172,2.0144,2.014,2.0131,2.0114,2.0111,2.0105,2.0104,2.0103,2.0103,0,0,0,0,0,0,0,2.0306,2.0301,2.0257,2.0252,2.0248,2.0235,2.0228,2.0215,2.0177,2.0199,2.0195,2.0189,2.0142,2.0133,2.0129,2.011,2.0105,2.0103,2.0102,2.0102,2.0094,2.0095,0,0,0,0,0,0,2.0314,2.0303,2.0259,2.0256,2.0273,2.0234,2.0227,2.0219,2.0178,2.0171,2.019,2.0187,2.0136,2.0131,2.0127,2.013,2.0103,2.0102,2.0101,2.0094,2.0095,2.0095,0,0,0,0,0,0,2.0315,2.031,2.0261,2.0279,2.0271,2.0234,2.0225,2.0219,2.021,2.0171,2.0164,2.0188,2.0135,2.0129,2.0119,2.0128,2.0101,2.0099,2.0093,2.0094,2.0095,2.0139,0,0,0,0,0,0,2.0317,2.0311,2.0314,2.0279,2.0271,2.0256,2.0226,2.0218,2.0207,2.0203,2.0167,2.0161,2.0134,2.0122,2.0118,2.0125,2.0098,2.0092,2.0093,2.0095,2.0136,2.0141,2.0146,0,0,0,0,0,2.032,2.0328,2.0314,2.0309,2.0274,2.0257,2.0252,2.0222,2.0208,2.021,2.0186,2.0162,2.0128,2.0122,2.0116,2.0123,2.0091,2.0093,2.0094,2.0134,2.014,2.0145,0,0,0,0,0,0,2.0362,2.0322,2.0307,2.0305,2.0285,2.0249,2.025,2.023,2.0212,2.0208,2.0171,2.0164,2.0158,2.014,2.0133,2.0127,2.0106,2.0107,2.0138,2.0144,2.0148,2.0152,2.0097,0,0,0,0,0,2.0372,2.0363,2.0328,2.0329,2.032,2.0287,2.0279,2.0258,2.0235,2.0226,2.02,2.0178,2.0162,2.0152,2.0136,2.0135,2.0125,2.0137,2.0141,2.0145,2.0145,2.0142,2.0146,2.0101,2.0101,2.0101,0,0,2.0391,2.0368,2.0364,2.0337,2.0319,2.0309,2.028,2.0271,2.0262,2.0224,2.0213,2.0194,2.0166,2.0161,2.0157,2.0145,2.0156,2.0147,2.0151,2.0149,2.0144,2.0149,2.0152,2.0102,2.0102,2.0102,0,0,2.0419,2.0402,2.0401,2.0384,2.0358,2.0336,2.0336,2.0303,2.029,2.0279,2.025,2.0239,2.0213,2.0194,2.0182,2.0205,2.0182,2.0201,2.0224,2.0221,2.0225,2.0228,2.0234,2.0237,2.0202,2.0202,2.0202,0,2.0445,2.043,2.0402,2.0395,2.0383,2.035,2.0347,2.0332,2.0302,2.0294,2.0282,2.0249,2.0228,2.0217,2.0223,2.0215,2.0212,2.0204,2.0227,2.0229,2.0232,2.0237,2.024,2.0205,2.0204,2.0204,2.0204,0,2.0463,2.0453,2.0455,2.0428,2.0417,2.0412,2.0382,2.0374,2.0355,2.0334,2.0323,2.0298,2.0275,2.0272,2.0252,2.0258,2.0251,2.0234,2.0212,2.0239,2.0244,2.0246,2.0208,2.0207,2.0206,2.0206,0,0,2.0514,2.0473,2.0474,2.0461,2.0431,2.0422,2.0416,2.0396,2.0389,2.037,2.0362,2.0342,2.0326,2.0311,2.029,2.0288,2.0307,2.0271,2.0269,2.0276,2.0309,2.0321,2.0324,2.0292,2.0293,2.0293,2.0311,0,2.0536,2.0524,2.0498,2.0493,2.0483,2.0453,2.0447,2.0427,2.0408,2.0396,2.0374,2.036,2.0341,2.0332,2.0329,2.0305,2.0312,2.0304,2.0282,2.0282,2.0288,2.0327,2.0339,2.0356,2.0313,2.0313,2.0313,0,2.0559,2.0543,2.0538,2.0508,2.0503,2.0499,2.0478,2.0467,2.0444,2.043,2.0416,2.0393,2.0383,2.0365,2.035,2.0345,2.0335,2.0323,2.0323,2.0317,2.0297,2.032,2.0362,2.0364,2.0316,2.0316,2.0316,0,2.0595,2.0572,2.0565,2.0556,2.0522,2.0519,2.0505,2.0481,2.0471,2.0453,2.0445,2.0426,2.0415,2.04,2.0372,2.0362,2.0359,2.034,2.0346,2.0347,2.0344,2.0344,2.0383,2.0342,2.0342,2.0342,2.0342,0,2.062,2.0617,2.0581,2.0577,2.0572,2.0544,2.054,2.0523,2.0502,2.0493,2.0466,2.0458,2.0423,2.041,2.0388,2.0378,2.0374,2.0361,2.0355,2.0362,2.0363,2.0353,2.035,2.0343,2.0343,2.0343,2.0343,0,2.0658,2.0634,2.0624,2.0594,2.0586,2.0584,2.0558,2.0552,2.0533,2.0521,2.0517,2.0486,2.0469,2.0441,2.0416,2.0401,2.0395,2.0386,2.0403,2.0399,2.0406,2.0405,2.0437,2.0439,2.04,2.04,2.0401,0,2.0674,2.0671,2.0642,2.0635,2.0622,2.061,2.06,2.0572,2.0562,2.0537,2.0533,2.0516,2.0499,2.0475,2.0449,2.0429,2.0418,2.0431,2.0415,2.0422,2.0416,2.0415,2.0414,2.0433,2.0434,2.0434,2.0435,0,2.0705,2.0694,2.0681,2.0664,2.0653,2.0638,2.0621,2.0617,2.0585,2.0575,2.0559,2.0547,2.0523,2.0504,2.0482,2.0465,2.0444,2.0441,2.0441,2.0447,2.0456,2.0449,2.041,2.0439,2.0439,2.0438,2.0438,2.0438,2.0731,2.0727,2.0706,2.0692,2.0678,2.0663,2.0656,2.0637,2.0624,2.0602,2.0587,2.0572,2.0549,2.0516,2.0501,2.0488,2.0478,2.0479,2.0478,2.0478,2.0481,2.0461,2.0484,2.0484,2.0484,2.0484,2.0484,0,2.0759,2.0745,2.0733,2.0711,2.0701,2.0685,2.0666,2.0657,2.0645,2.0626,2.0612,2.0593,2.0576,2.0549,2.053,2.0524,2.0514,2.0519,2.0518,2.0514,2.0491,2.0492,2.0528,2.0528,2.0528,2.0528,2.0528,2.0528,2.0772,2.0765,2.0751,2.0736,2.0721,2.0707,2.0698,2.0684,2.0668,2.065,2.0636,2.062,2.0597,2.0576,2.0559,2.0552,2.0544,2.0553,2.0542,2.052,2.0516,2.0512,2.0513,2.0552,2.0552,2.0566,2.0566,2.0566]},{"header":{"parameterUnit":"m.s-1","parameterCategory":1,"la1":30.2991,"la2":30.254,"lo1":-89.0895,"lo2":-89.0444,"dy":0.0017,"dx":0.0017,"nx":28,"ny":28,"refTime":"2023-09-15T21:00:00:Z","depth":0,"parameterNumber":3,"parameterNumberName":"V-component_of_WINDS"},"data":[0,0,0,0,0,0,0,0,0,0,0,0,0,0,0,0,0,0,0,0,0,0,0,0,0,0,0,0,0,0,0,0,0,0,0,0,0,0,0,0,0,0,0,0,0,0,0,0,0,0,0,0,0,0,0,0,0,0,2.5333,2.5335,0,2.5497,2.5499,2.5501,2.5563,2.5563,2.5562,2.5562,2.5721,2.5725,2.573,0,0,0,0,0,0,0,0,0,0,0,0,0,2.5067,2.5071,2.5333,2.5335,2.5337,2.5497,2.5499,2.5501,2.5563,2.5563,2.5562,2.5562,2.5719,2.5725,2.5731,0,0,0,0,0,0,0,0,0,0,0,0,0,2.5201,2.5073,2.5332,2.5387,2.5394,2.5496,2.5499,2.5502,2.5563,2.5563,2.5562,2.5561,2.5718,2.5724,2.5731,2.5789,0,0,2.5753,2.5756,0,0,0,0,0,0,0,0,2.5194,2.5211,2.5377,2.5384,2.5391,2.5509,2.5464,2.5598,2.5563,2.5499,2.5562,2.5561,2.565,2.5663,2.5695,2.5796,2.5803,2.5753,2.5758,2.5761,2.5763,0,0,0,0,0,0,0,2.5184,2.5204,2.5398,2.538,2.5388,2.5402,2.542,2.5489,2.5576,2.5504,2.5509,2.5528,2.5654,2.5688,2.5699,2.5805,2.5753,2.5759,2.5764,2.5766,2.5963,2.5964,0,0,0,0,0,0,2.5167,2.5196,2.5392,2.5403,2.5289,2.5407,2.5428,2.5472,2.5576,2.5591,2.5529,2.5531,2.5676,2.5691,2.5705,2.578,2.5761,2.5767,2.5771,2.5962,2.5963,2.5964,0,0,0,0,0,0,2.5161,2.5184,2.5386,2.5301,2.5328,2.5412,2.5462,2.5475,2.551,2.5594,2.5609,2.5548,2.5676,2.5695,2.5768,2.5787,2.577,2.5777,2.5961,2.5963,2.5964,2.593,0,0,0,0,0,0,2.5153,2.5181,2.5205,2.5301,2.5332,2.5448,2.5463,2.5479,2.5523,2.5527,2.5616,2.563,2.5677,2.5758,2.5775,2.5796,2.5782,2.596,2.5962,2.5963,2.593,2.593,2.5931,0,0,0,0,0,2.5143,2.5187,2.5206,2.5229,2.5364,2.5449,2.5467,2.5522,2.5524,2.5548,2.5603,2.5627,2.5782,2.5765,2.5785,2.5808,2.5959,2.5961,2.5963,2.593,2.593,2.5931,0,0,0,0,0,0,2.5087,2.52,2.5223,2.5299,2.5365,2.546,2.5491,2.5521,2.5585,2.5585,2.5649,2.5669,2.5737,2.578,2.5758,2.587,2.5872,2.5878,2.5839,2.584,2.5841,2.5829,2.5788,0,0,0,0,0,2.5084,2.5146,2.5241,2.5299,2.5331,2.5406,2.5444,2.5482,2.5551,2.5578,2.5638,2.5702,2.5765,2.5805,2.5868,2.5937,2.5957,2.5963,2.5963,2.5963,2.5967,2.6008,2.6012,2.5972,2.5972,2.5972,0,0,2.5077,2.5147,2.5181,2.5289,2.5344,2.5406,2.5428,2.5491,2.5537,2.5587,2.5661,2.5707,2.5783,2.5855,2.5889,2.5892,2.5983,2.5966,2.5965,2.597,2.6011,2.6014,2.6018,2.5974,2.5973,2.5973,0,0,2.5097,2.5156,2.5212,2.5268,2.5352,2.5402,2.5416,2.5508,2.5541,2.5617,2.5657,2.5711,2.5818,2.5871,2.5911,2.5954,2.5979,2.5972,2.5973,2.6012,2.6016,2.6019,2.6034,2.6039,2.5977,2.5977,2.5977,0,2.5077,2.5173,2.5236,2.5299,2.5345,2.5397,2.5454,2.5504,2.5603,2.5632,2.5636,2.5773,2.5827,2.5913,2.5924,2.5955,2.5971,2.5962,2.6011,2.6014,2.6018,2.6034,2.6039,2.5975,2.5975,2.5976,2.5976,0,2.5145,2.5211,2.5246,2.5345,2.5395,2.5454,2.5524,2.5567,2.5601,2.565,2.5726,2.5794,2.5872,2.5895,2.5927,2.5986,2.5985,2.5999,2.6002,2.6019,2.6035,2.6041,2.5973,2.5974,2.5974,2.5975,0,0,2.5132,2.5268,2.5279,2.5326,2.5424,2.5476,2.5536,2.5617,2.5652,2.5719,2.5771,2.5862,2.5876,2.5923,2.5961,2.5995,2.6026,2.6005,2.6007,2.6006,2.6095,2.6084,2.609,2.6044,2.6045,2.6046,2.6089,0,2.5165,2.528,2.5339,2.5428,2.549,2.5542,2.5595,2.566,2.5708,2.5766,2.5817,2.5882,2.5895,2.5923,2.5959,2.6014,2.6044,2.6012,2.6091,2.6093,2.6071,2.6099,2.6087,2.6124,2.6095,2.6096,2.6097,0,2.5218,2.5289,2.5385,2.5479,2.5507,2.5555,2.5634,2.5689,2.5763,2.5796,2.5849,2.5888,2.5953,2.5952,2.6042,2.6019,2.6054,2.6086,2.6089,2.6098,2.6096,2.6108,2.6137,2.6143,2.6107,2.6106,2.6106,0,2.52,2.5319,2.5393,2.5431,2.5541,2.5574,2.5621,2.5695,2.574,2.5808,2.5838,2.5911,2.5951,2.6006,2.6063,2.6057,2.6147,2.6151,2.6174,2.6173,2.619,2.6188,2.6225,2.6213,2.6213,2.6213,2.6213,0,2.5231,2.5287,2.5387,2.5432,2.5497,2.5564,2.5625,2.5676,2.5742,2.5797,2.5844,2.5894,2.5966,2.6024,2.6069,2.6137,2.6154,2.6181,2.6192,2.6177,2.6173,2.62,2.6199,2.6215,2.6214,2.6214,2.6214,0,2.5221,2.529,2.5374,2.5473,2.5499,2.5543,2.5627,2.5672,2.5723,2.5792,2.5811,2.5891,2.5962,2.6025,2.6117,2.6147,2.6217,2.623,2.6192,2.6198,2.6219,2.6216,2.6274,2.6285,2.6265,2.6266,2.6266,0,2.5236,2.5282,2.5388,2.543,2.5477,2.5543,2.559,2.5658,2.5704,2.5795,2.5828,2.5904,2.5968,2.6078,2.6143,2.6214,2.623,2.6245,2.624,2.6224,2.623,2.6227,2.6232,2.6245,2.6245,2.6245,2.6244,0,2.5256,2.5289,2.5357,2.5437,2.5494,2.5559,2.5626,2.5656,2.5736,2.5786,2.5862,2.5911,2.6009,2.6082,2.6162,2.6207,2.6239,2.6246,2.6255,2.624,2.6216,2.623,2.6192,2.6244,2.6244,2.6244,2.6244,2.6244,2.526,2.5304,2.5386,2.546,2.5519,2.5581,2.5629,2.5687,2.5753,2.5839,2.5874,2.5951,2.6025,2.6135,2.6182,2.6241,2.6246,2.6259,2.6263,2.6265,2.6263,2.6208,2.6255,2.6255,2.6255,2.6256,2.6256,0,2.5283,2.5339,2.5407,2.5502,2.556,2.5588,2.5664,2.571,2.5778,2.5847,2.591,2.5997,2.6069,2.614,2.6216,2.625,2.6266,2.6267,2.6265,2.6275,2.6253,2.6238,2.6253,2.6253,2.6253,2.6253,2.6253,2.6253,2.5302,2.5378,2.542,2.5525,2.5581,2.5659,2.57,2.5757,2.5812,2.5908,2.597,2.6017,2.6087,2.6168,2.6235,2.6254,2.628,2.6277,2.63,2.6277,2.6277,2.6276,2.6262,2.6282,2.6282,2.6317,2.6317,2.6318]}]]